When you browse on this site, cookies collect data to enhance your experience and personalize the content and advertising you see.
Visit our Privacy Policy to learn more. By continuing to use the site, you agree to this use of cookies and data.

Météo par heure à Vasilkovka

Ce jour, 20 Septembre, Dimanche

Heure Température Précipitation Vent Pression Humidité
00:00 +10°C° 0 mm 2 m/s 754 mmHg 58%
01:00 +10°C° 0 mm 2 m/s 754 mmHg 60%
02:00 +9°C° 0 mm 2 m/s 753 mmHg 64%
03:00 +9°C° 0 mm 2 m/s 753 mmHg 67%
04:00 +8°C° 0 mm 2 m/s 753 mmHg 69%
05:00 +8°C° 0 mm 2 m/s 753 mmHg 72%
06:00 +10°C° 0 mm 3 m/s 754 mmHg 65%
07:00 +12°C° 0 mm 3 m/s 754 mmHg 59%
08:00 +14°C° 0 mm 3 m/s 754 mmHg 53%
09:00 +17°C° 0 mm 4 m/s 754 mmHg 48%
10:00 +17°C° 0 mm 5 m/s 754 mmHg 43%
11:00 +20°C° 0 mm 6 m/s 754 mmHg 38%
12:00 +21°C° 0 mm 5 m/s 754 mmHg 34%
13:00 +21°C° 0 mm 5 m/s 754 mmHg 31%
14:00 +22°C° 0 mm 5 m/s 754 mmHg 28%
15:00 +21°C° 0 mm 4 m/s 754 mmHg 31%
16:00 +20°C° 0 mm 4 m/s 754 mmHg 33%
17:00 +19°C° 0 mm 3 m/s 755 mmHg 36%
18:00 +17°C° 0 mm 3 m/s 755 mmHg 41%
19:00 +14°C° 0 mm 3 m/s 755 mmHg 46%
20:00 +12°C° 0 mm 3 m/s 756 mmHg 50%
21:00 +11°C° 0 mm 3 m/s 756 mmHg 55%
22:00 +10°C° 0 mm 3 m/s 757 mmHg 59%
23:00 +9°C° 0 mm 3 m/s 757 mmHg 63%

Demain, 21 Septembre, Lundi

Heure Température Précipitation Vent Pression Humidité
00:00 +9°C° 0 mm 2 m/s 757 mmHg 65%
01:00 +8°C° 0 mm 2 m/s 757 mmHg 67%
02:00 +8°C° 0 mm 2 m/s 757 mmHg 69%
03:00 +7°C° 0 mm 2 m/s 757 mmHg 70%
04:00 +8°C° 0 mm 1 m/s 757 mmHg 71%
05:00 +8°C° 0 mm 1 m/s 757 mmHg 72%
06:00 +10°C° 0 mm 1 m/s 758 mmHg 63%
07:00 +12°C° 0 mm 1 m/s 758 mmHg 55%
08:00 +14°C° 0 mm 1 m/s 758 mmHg 46%
09:00 +16°C° 0 mm 1 m/s 758 mmHg 41%
10:00 +19°C° 0 mm 1 m/s 758 mmHg 35%
11:00 +21°C° 0 mm 1 m/s 758 mmHg 29%
12:00 +22°C° 0 mm 1 m/s 757 mmHg 26%
13:00 +22°C° 0 mm 1 m/s 757 mmHg 24%
14:00 +23°C° 0 mm 1 m/s 757 mmHg 21%
15:00 +22°C° 0 mm 1 m/s 756 mmHg 24%
16:00 +21°C° 0 mm 1 m/s 756 mmHg 26%
17:00 +20°C° 0 mm 1 m/s 756 mmHg 28%
18:00 +18°C° 0 mm 1 m/s 756 mmHg 31%
19:00 +16°C° 0 mm 1 m/s 756 mmHg 34%
20:00 +14°C° 0 mm 1 m/s 757 mmHg 37%
21:00 +13°C° 0 mm 1 m/s 757 mmHg 39%
22:00 +12°C° 0 mm 1 m/s 757 mmHg 41%
23:00 +11°C° 0 mm 0 m/s 757 mmHg 43%

Après-demain, 22 Septembre, Mardi

Heure Température Précipitation Vent Pression Humidité
00:00 +10°C° 0 mm 0 m/s 757 mmHg 44%
01:00 +10°C° 0 mm 0 m/s 757 mmHg 45%
02:00 +10°C° 0 mm 0 m/s 757 mmHg 46%
03:00 +9°C° 0 mm 0 m/s 757 mmHg 47%
04:00 +9°C° 0 mm 0 m/s 757 mmHg 49%
05:00 +9°C° 0 mm 0 m/s 757 mmHg 50%
06:00 +11°C° 0 mm 0 m/s 757 mmHg 44%
07:00 +14°C° 0 mm 0 m/s 757 mmHg 39%
08:00 +18°C° 0 mm 1 m/s 758 mmHg 33%
09:00 +18°C° 0 mm 0 m/s 758 mmHg 30%
10:00 +20°C° 0 mm 0 m/s 758 mmHg 27%
11:00 +22°C° 0 mm 0 m/s 757 mmHg 24%
12:00 +23°C° 0 mm 0 m/s 757 mmHg 22%
13:00 +23°C° 0 mm 0 m/s 757 mmHg 20%
14:00 +24°C° 0 mm 0 m/s 756 mmHg 19%
15:00 +23°C° 0 mm 0 m/s 756 mmHg 21%
16:00 +21°C° 0 mm 0 m/s 756 mmHg 23%
17:00 +20°C° 0 mm 0 m/s 756 mmHg 25%
18:00 +18°C° 0 mm 0 m/s 756 mmHg 27%
19:00 +17°C° 0 mm 0 m/s 756 mmHg 29%
20:00 +15°C° 0 mm 0 m/s 756 mmHg 32%
21:00 +16°C° 0 mm 1 m/s 756 mmHg 33%
22:00 +15°C° 0 mm 1 m/s 756 mmHg 34%
23:00 +15°C° 0 mm 1 m/s 755 mmHg 35%

23 Septembre, Mercredi

Heure Température Précipitation Vent Pression Humidité
00:00 +14°C° 0 mm 1 m/s 755 mmHg 35%
01:00 +14°C° 0 mm 1 m/s 755 mmHg 36%
02:00 +13°C° 0 mm 1 m/s 755 mmHg 37%
03:00 +13°C° 0 mm 1 m/s 755 mmHg 38%
04:00 +12°C° 0 mm 1 m/s 755 mmHg 38%
05:00 +12°C° 0 mm 1 m/s 755 mmHg 39%
06:00 +15°C° 0 mm 2 m/s 755 mmHg 34%
07:00 +17°C° 0 mm 2 m/s 755 mmHg 30%
08:00 +19°C° 0 mm 2 m/s 755 mmHg 26%
09:00 +21°C° 0 mm 2 m/s 755 mmHg 22%
10:00 +24°C° 0 mm 3 m/s 755 mmHg 19%
11:00 +26°C° 0 mm 3 m/s 755 mmHg 16%
12:00 +27°C° 0 mm 3 m/s 754 mmHg 15%
13:00 +28°C° 0 mm 3 m/s 754 mmHg 14%
14:00 +29°C° 0 mm 2 m/s 753 mmHg 13%
15:00 +27°C° 0 mm 2 m/s 753 mmHg 14%
16:00 +26°C° 0 mm 2 m/s 753 mmHg 16%
17:00 +24°C° 0 mm 2 m/s 752 mmHg 18%
18:00 +21°C° 0 mm 2 m/s 752 mmHg 19%
19:00 +20°C° 0 mm 2 m/s 753 mmHg 21%
20:00 +18°C° 0 mm 2 m/s 753 mmHg 23%
21:00 +17°C° 0 mm 3 m/s 753 mmHg 25%
22:00 +16°C° 0 mm 3 m/s 753 mmHg 26%
23:00 +16°C° 0 mm 3 m/s 753 mmHg 28%

24 Septembre, Jeudi

Heure Température Précipitation Vent Pression Humidité
00:00 +14°C° 0 mm 3 m/s 753 mmHg 28%
01:00 +14°C° 0 mm 3 m/s 753 mmHg 29%
02:00 +13°C° 0 mm 3 m/s 752 mmHg 30%
03:00 +13°C° 0 mm 3 m/s 753 mmHg 31%
04:00 +12°C° 0 mm 3 m/s 753 mmHg 32%
05:00 +12°C° 0 mm 3 m/s 753 mmHg 34%
06:00 +14°C° 0 mm 3 m/s 753 mmHg 31%
07:00 +18°C° 0 mm 3 m/s 753 mmHg 28%
08:00 +20°C° 0 mm 3 m/s 753 mmHg 26%
09:00 +22°C° 0 mm 4 m/s 753 mmHg 24%
10:00 +26°C° 0 mm 4 m/s 752 mmHg 22%
11:00 +28°C° 0 mm 4 m/s 752 mmHg 20%
12:00 +29°C° 0 mm 4 m/s 752 mmHg 19%
13:00 +29°C° 0 mm 4 m/s 752 mmHg 18%
14:00 +30°C° 0 mm 4 m/s 752 mmHg 16%
15:00 +29°C° 0 mm 4 m/s 751 mmHg 19%
16:00 +27°C° 0 mm 3 m/s 751 mmHg 21%
17:00 +25°C° 0 mm 2 m/s 751 mmHg 23%
18:00 +24°C° 0 mm 3 m/s 751 mmHg 26%
19:00 +22°C° 0 mm 3 m/s 751 mmHg 29%
20:00 +20°C° 0 mm 3 m/s 751 mmHg 32%
21:00 +20°C° 0 mm 3 m/s 751 mmHg 32%
22:00 +19°C° 0 mm 3 m/s 751 mmHg 33%
23:00 +19°C° 0 mm 3 m/s 751 mmHg 33%

25 Septembre, Vendredi

Heure Température Précipitation Vent Pression Humidité
00:00 +18°C° 0 mm 3 m/s 751 mmHg 35%
01:00 +18°C° 0 mm 3 m/s 751 mmHg 37%
02:00 +17°C° 0 mm 3 m/s 751 mmHg 39%
03:00 +17°C° 0 mm 3 m/s 751 mmHg 41%
04:00 +16°C° 0 mm 3 m/s 751 mmHg 44%
05:00 +15°C° 0 mm 4 m/s 751 mmHg 46%
06:00 +18°C° 0 mm 4 m/s 751 mmHg 43%
07:00 +19°C° 0 mm 5 m/s 751 mmHg 40%
08:00 +21°C° 0 mm 5 m/s 751 mmHg 36%
09:00 +23°C° 0 mm 6 m/s 750 mmHg 33%
10:00 +26°C° 0 mm 6 m/s 750 mmHg 30%
11:00 +28°C° 0 mm 6 m/s 750 mmHg 27%
12:00 +29°C° 0 mm 6 m/s 750 mmHg 26%
13:00 +29°C° 0 mm 7 m/s 749 mmHg 25%
14:00 +29°C° 0 mm 7 m/s 749 mmHg 23%
15:00 +28°C° 0 mm 6 m/s 749 mmHg 25%
16:00 +27°C° 0 mm 4 m/s 748 mmHg 26%
17:00 +26°C° 0 mm 3 m/s 748 mmHg 28%
18:00 +25°C° 0 mm 4 m/s 748 mmHg 29%
19:00 +23°C° 0 mm 4 m/s 748 mmHg 31%
20:00 +22°C° 0 mm 5 m/s 748 mmHg 33%
21:00 +21°C° 0 mm 5 m/s 748 mmHg 34%
22:00 +21°C° 0 mm 5 m/s 748 mmHg 35%
23:00 +20°C° 0 mm 5 m/s 748 mmHg 36%
Voir plus